^^
Saratoga-Weather Station Historical Data
Daily Summary for June 26, 2020 Units:  Metric    English   Both
Daily Weekly Monthly Yearly Custom
  High: Low: Average:
Temperature: 10.4 °C 1.1 °C 6 °C
Dew Point: -1.4 °C -8.2 °C -4.6 °C
Humidity: 67% 37% 47%
Wind Speed: 20.9km/h km/h 5.3km/h
Wind Gust: 25.7km/h - -
Wind- - East
Pressure: 1019.0 hPa 1016.9 hPa -
Precipitation: 0.0 mm    
Historical Graphs
 
 
Tabular Data for June 26, 2020
Time Temperature Dew Point Pressure Wind Wind Speed Wind Gust Humidity Rainfall Rate (Hourly) solar
00:04 4.6 °C -8.2 °C 1019.0 hPa East 3.2 km/h 3.2 km/h 39% 0.0 mm 0 W/m2
00:09 4.7 °C -8.1 °C 1019.0 hPa East 3.2 km/h 16.1 km/h 39% 0.0 mm 0 W/m2
00:14 4.6 °C -8.2 °C 1019.0 hPa East 3.2 km/h 3.2 km/h 39% 0.0 mm 0 W/m2
00:19 4.5 °C -7.9 °C 1019.0 hPa East 3.2 km/h   40% 0.0 mm 0 W/m2
00:24 4.4 °C -8 °C 1018.6 hPa Calm     40% 0.0 mm 0 W/m2
00:29 4.4 °C -8 °C 1018.6 hPa Calm     40% 0.0 mm 0 W/m2
00:34 4.4 °C -7.7 °C 1018.6 hPa Calm     41% 0.0 mm 0 W/m2
00:39 4.4 °C -7.7 °C 1018.6 hPa Calm     41% 0.0 mm 0 W/m2
00:44 4.4 °C -7.7 °C 1018.6 hPa Calm     41% 0.0 mm 0 W/m2
00:49 4.3 °C -7.8 °C 1018.6 hPa ENE 4.7 km/h 12.9 km/h 41% 0.0 mm 0 W/m2
00:54 4.3 °C -7.8 °C 1018.6 hPa ENE 3.2 km/h 8 km/h 41% 0.0 mm 0 W/m2
00:59 4.3 °C -7.8 °C 1018.6 hPa ENE 4.7 km/h 12.9 km/h 41% 0.0 mm 0 W/m2
01:04 4.2 °C -7.6 °C 1018.3 hPa ESE 3.2 km/h 3.2 km/h 42% 0.0 mm 0 W/m2
01:09 4.1 °C -7.7 °C 1018.3 hPa East 1.4 km/h 6.4 km/h 42% 0.0 mm 0 W/m2
01:14 3.9 °C -7.5 °C 1018.3 hPa ENE 3.2 km/h 6.4 km/h 43% 0.0 mm 0 W/m2
01:19 3.8 °C -7.3 °C 1018.3 hPa East 1.4 km/h 6.4 km/h 44% 0.0 mm 0 W/m2
01:24 3.7 °C -7.1 °C 1018.3 hPa ESE 1.4 km/h 4.8 km/h 45% 0.0 mm 0 W/m2
01:29 3.6 °C -7.2 °C 1018.3 hPa NNE 3.2 km/h 4.8 km/h 45% 0.0 mm 0 W/m2
01:34 3.6 °C -7.2 °C 1018.3 hPa East 3.2 km/h 4.8 km/h 45% 0.0 mm 0 W/m2
01:39 3.5 °C -7 °C 1018.3 hPa ESE 4.7 km/h 9.7 km/h 46% 0.0 mm 0 W/m2
01:44 3.6 °C -6.9 °C 1018.0 hPa SE 1.4 km/h 11.3 km/h 46% 0.0 mm 0 W/m2
01:49 3.6 °C -6.9 °C 1018.0 hPa ESE 3.2 km/h 4.8 km/h 46% 0.0 mm 0 W/m2
01:54 3.6 °C -6.9 °C 1018.0 hPa East 1.4 km/h 9.7 km/h 46% 0.0 mm 0 W/m2
01:59 3.6 °C -6.9 °C 1018.0 hPa ESE 4.7 km/h 6.4 km/h 46% 0.0 mm 0 W/m2
02:04 3.6 °C -6.9 °C 1018.0 hPa ENE 3.2 km/h 6.4 km/h 46% 0.0 mm 0 W/m2
02:09 3.5 °C -7 °C 1018.0 hPa East 6.4 km/h 6.4 km/h 46% 0.0 mm 0 W/m2
02:14 3.4 °C -7.1 °C 1018.0 hPa East 3.2 km/h 14.5 km/h 46% 0.0 mm 0 W/m2
02:19 3.5 °C -7 °C 1017.6 hPa East 9.7 km/h 9.7 km/h 46% 0.0 mm 0 W/m2
02:24 3.4 °C -6.9 °C 1017.6 hPa East 4.7 km/h 14.5 km/h 47% 0.0 mm 0 W/m2
02:29 3.4 °C -6.9 °C 1017.6 hPa Calm     47% 0.0 mm 0 W/m2
02:34 3.3 °C -6.7 °C 1017.6 hPa Calm   1.6 km/h 48% 0.0 mm 0 W/m2
02:39 3.2 °C -7 °C 1017.6 hPa East 4.7 km/h 4.8 km/h 47% 0.0 mm 0 W/m2
02:44 3.2 °C -6.8 °C 1017.3 hPa ENE 4.7 km/h 6.4 km/h 48% 0.0 mm 0 W/m2
02:50 3.2 °C -7 °C 1017.3 hPa East 6.4 km/h 8 km/h 47% 0.0 mm 0 W/m2
02:55 3.2 °C -6.8 °C 1017.3 hPa SSE 6.4 km/h 12.9 km/h 48% 0.0 mm 0 W/m2
03:00 3.2 °C -6.8 °C 1017.3 hPa ENE 6.4 km/h 16.1 km/h 48% 0.0 mm 0 W/m2
03:05 3.2 °C -6.8 °C 1017.3 hPa ENE 3.2 km/h 9.7 km/h 48% 0.0 mm 0 W/m2
03:10 3.1 °C -6.9 °C 1017.3 hPa East 3.2 km/h 3.2 km/h 48% 0.0 mm 0 W/m2
03:15 3.2 °C -6.8 °C 1017.3 hPa ENE 6.4 km/h 14.5 km/h 48% 0.0 mm 0 W/m2
03:20 3.1 °C -6.9 °C 1017.3 hPa NE 9.7 km/h 12.9 km/h 48% 0.0 mm 0 W/m2
03:25 3 °C -6.7 °C 1017.3 hPa ESE 4.7 km/h 16.1 km/h 49% 0.0 mm 0 W/m2
03:30 2.8 °C -6.9 °C 1017.3 hPa SE 1.4 km/h 4.8 km/h 49% 0.0 mm 0 W/m2
03:35 2.8 °C -6.6 °C 1017.3 hPa Calm   8 km/h 50% 0.0 mm 0 W/m2
03:40 2.7 °C -6.7 °C 1017.3 hPa East 3.2 km/h 4.8 km/h 50% 0.0 mm 0 W/m2
03:45 2.7 °C -6.7 °C 1017.3 hPa East 9.7 km/h 9.7 km/h 50% 0.0 mm 0 W/m2
03:50 2.7 °C -6.7 °C 1017.3 hPa ESE 3.2 km/h 6.4 km/h 50% 0.0 mm 0 W/m2
03:55 2.6 °C -6.8 °C 1017.3 hPa ESE 4.7 km/h 6.4 km/h 50% 0.0 mm 0 W/m2
04:00 2.5 °C -6.6 °C 1017.3 hPa ESE 4.7 km/h 6.4 km/h 51% 0.0 mm 0 W/m2
04:05 2.4 °C -6.7 °C 1017.3 hPa ESE 4.7 km/h 6.4 km/h 51% 0.0 mm 0 W/m2
04:10 2.3 °C -6.8 °C 1017.3 hPa ENE 4.7 km/h 6.4 km/h 51% 0.0 mm 0 W/m2
04:15 2.3 °C -6.8 °C 1017.3 hPa ESE 4.7 km/h 14.5 km/h 51% 0.0 mm 0 W/m2
04:21 2.3 °C -6.5 °C 1017.3 hPa East 3.2 km/h 6.4 km/h 52% 0.0 mm 0 W/m2
04:26 2.3 °C -6.8 °C 1017.3 hPa NE 7.9 km/h 14.5 km/h 51% 0.0 mm 0 W/m2
04:31 2.3 °C -6.8 °C 1017.3 hPa ESE 4.7 km/h 9.7 km/h 51% 0.0 mm 0 W/m2
04:36 2.3 °C -6.8 °C 1017.3 hPa East 6.4 km/h 8 km/h 51% 0.0 mm 0 W/m2
04:41 2.2 °C -6.9 °C 1017.3 hPa East 9.7 km/h 11.3 km/h 51% 0.0 mm 0 W/m2
04:46 2.2 °C -6.6 °C 1017.3 hPa SE 3.2 km/h 12.9 km/h 52% 0.0 mm 0 W/m2
04:51 2.2 °C -6.6 °C 1016.9 hPa ENE 3.2 km/h 6.4 km/h 52% 0.0 mm 0 W/m2
04:56 2.1 °C -6.7 °C 1016.9 hPa Calm   3.2 km/h 52% 0.0 mm 0 W/m2
05:01 2.1 °C -6.5 °C 1016.9 hPa Calm   1.6 km/h 53% 0.0 mm 0 W/m2
05:06 1.8 °C -6.8 °C 1016.9 hPa NE 3.2 km/h 6.4 km/h 53% 0.0 mm 0 W/m2
05:11 1.8 °C -6.8 °C 1016.9 hPa SE 3.2 km/h 4.8 km/h 53% 0.0 mm 0 W/m2
05:16 1.8 °C -6.8 °C 1016.9 hPa ESE 6.4 km/h 8 km/h 53% 0.0 mm 0 W/m2
05:21 1.9 °C -6.7 °C 1016.9 hPa ENE 3.2 km/h 6.4 km/h 53% 0.0 mm 0 W/m2
05:26 1.8 °C -6.5 °C 1016.9 hPa WSW 1.4 km/h 4.8 km/h 54% 0.0 mm 0 W/m2
05:31 1.8 °C -6.5 °C 1016.9 hPa NE 1.4 km/h 3.2 km/h 54% 0.0 mm 0 W/m2
05:36 1.7 °C -6.6 °C 1016.9 hPa ENE 1.4 km/h 1.6 km/h 54% 0.0 mm 0 W/m2
05:41 1.7 °C -6.9 °C 1016.9 hPa NW 1.4 km/h 6.4 km/h 53% 0.0 mm 0 W/m2
05:46 1.6 °C -6.7 °C 1016.9 hPa NE 1.4 km/h 1.6 km/h 54% 0.0 mm 0 W/m2
05:51 1.6 °C -6.5 °C 1016.9 hPa Calm   1.6 km/h 55% 0.0 mm 0 W/m2
05:56 1.4 °C -6.7 °C 1016.9 hPa Calm   3.2 km/h 55% 0.0 mm 0 W/m2
06:01 1.3 °C -6.5 °C 1016.9 hPa Calm   3.2 km/h 56% 0.0 mm 0 W/m2
06:07 1.3 °C -6.5 °C 1016.9 hPa ENE 4.7 km/h 8 km/h 56% 0.0 mm 0 W/m2
06:12 1.3 °C -6.5 °C 1017.3 hPa South 1.4 km/h 4.8 km/h 56% 0.0 mm 0 W/m2
06:17 1.3 °C -6.5 °C 1017.3 hPa ENE 6.4 km/h 6.4 km/h 56% 0.0 mm 0 W/m2
06:22 1.3 °C -6.5 °C 1017.3 hPa ENE 1.4 km/h 3.2 km/h 56% 0.0 mm 0 W/m2
06:27 1.2 °C -6.6 °C 1017.3 hPa NNE 1.4 km/h 1.6 km/h 56% 0.0 mm 5 W/m2
06:32 1.1 °C -6.5 °C 1017.3 hPa ENE 1.4 km/h 11.3 km/h 57% 0.0 mm 9 W/m2
06:37 1.1 °C -6.7 °C 1017.3 hPa East 1.4 km/h 3.2 km/h 56% 0.0 mm 11 W/m2
06:42 1.1 °C -6.7 °C 1017.3 hPa Calm   9.7 km/h 56% 0.0 mm 14 W/m2
06:47 1.1 °C -6.5 °C 1017.3 hPa NE 6.4 km/h 8 km/h 57% 0.0 mm 16 W/m2
06:52 1.2 °C -6.6 °C 1017.3 hPa East 4.7 km/h 9.7 km/h 56% 0.0 mm 18 W/m2
06:57 1.2 °C -6.6 °C 1017.3 hPa ESE 11.3 km/h 11.3 km/h 56% 0.0 mm 19 W/m2
07:02 1.3 °C -6.5 °C 1017.3 hPa East 4.7 km/h 4.8 km/h 56% 0.0 mm 21 W/m2
07:07 1.4 °C -6.4 °C 1017.3 hPa East 7.9 km/h 11.3 km/h 56% 0.0 mm 23 W/m2
07:12 1.6 °C -6.5 °C 1017.3 hPa East 17.7 km/h 19.3 km/h 55% 0.0 mm 26 W/m2
07:17 1.7 °C -6.4 °C 1017.3 hPa East 4.7 km/h 4.8 km/h 55% 0.0 mm 26 W/m2
07:22 1.8 °C -6.5 °C 1017.3 hPa East 6.4 km/h 14.5 km/h 54% 0.0 mm 28 W/m2
07:27 1.8 °C -6.5 °C 1017.3 hPa NE 9.7 km/h 17.7 km/h 54% 0.0 mm 30 W/m2
07:32 1.9 °C -6.4 °C 1017.3 hPa SE 1.4 km/h 11.3 km/h 54% 0.0 mm 95 W/m2
07:37 2 °C -6.3 °C 1017.3 hPa East 3.2 km/h 12.9 km/h 54% 0.0 mm 141 W/m2
07:42 2.1 °C -6.2 °C 1017.3 hPa ESE 6.4 km/h 11.3 km/h 54% 0.0 mm 151 W/m2
07:47 2.1 °C -6.2 °C 1017.3 hPa NE 6.4 km/h 14.5 km/h 54% 0.0 mm 163 W/m2
07:52 2.2 °C -6.4 °C 1017.3 hPa East 4.7 km/h 14.5 km/h 53% 0.0 mm 176 W/m2
07:57 2.3 °C -6.3 °C 1017.3 hPa NE 6.4 km/h 17.7 km/h 53% 0.0 mm 190 W/m2
08:02 2.4 °C -6.2 °C 1017.3 hPa NNE 6.4 km/h 14.5 km/h 53% 0.0 mm 202 W/m2
08:07 2.5 °C -5.9 °C 1017.3 hPa SE 7.9 km/h 17.7 km/h 54% 0.0 mm 214 W/m2
08:12 2.7 °C -5.7 °C 1017.3 hPa East 14.3 km/h 16.1 km/h 54% 0.0 mm 229 W/m2
08:17 2.8 °C -5.8 °C 1017.3 hPa East 11.1 km/h 14.5 km/h 53% 0.0 mm 239 W/m2
08:22 2.9 °C -5.7 °C 1017.6 hPa ENE 3.2 km/h 6.4 km/h 53% 0.0 mm 111 W/m2
08:27 3.2 °C -5.5 °C 1017.6 hPa NE 9.7 km/h 14.5 km/h 53% 0.0 mm 46 W/m2
08:32 3.3 °C -5.6 °C 1017.6 hPa East 6.4 km/h 16.1 km/h 52% 0.0 mm 239 W/m2
08:37 3.4 °C -5.8 °C 1017.6 hPa East 17.7 km/h 17.7 km/h 51% 0.0 mm 290 W/m2
08:43 3.6 °C -5.6 °C 1017.6 hPa Calm   8 km/h 51% 0.0 mm 302 W/m2
08:48 3.8 °C -5.7 °C 1017.6 hPa East 4.7 km/h 6.4 km/h 50% 0.0 mm 316 W/m2
08:53 4.1 °C -5.4 °C 1017.6 hPa ENE 9.7 km/h 11.3 km/h 50% 0.0 mm 327 W/m2
08:58 4.3 °C -5.2 °C 1017.6 hPa NE 7.9 km/h 20.9 km/h 50% 0.0 mm 341 W/m2
09:03 4.3 °C -5.5 °C 1017.6 hPa ESE 17.7 km/h 17.7 km/h 49% 0.0 mm 353 W/m2
09:08 4.4 °C -5.4 °C 1017.6 hPa East 7.9 km/h 22.5 km/h 49% 0.0 mm 364 W/m2
09:13 4.4 °C -5.4 °C 1017.6 hPa East 4.7 km/h 17.7 km/h 49% 0.0 mm 376 W/m2
09:18 4.4 °C -5.7 °C 1017.6 hPa East 4.7 km/h 22.5 km/h 48% 0.0 mm 387 W/m2
09:23 4.6 °C -5.2 °C 1017.6 hPa East 1.4 km/h 6.4 km/h 49% 0.0 mm 401 W/m2
09:28 4.8 °C -5.3 °C 1017.6 hPa ESE 9.7 km/h 16.1 km/h 48% 0.0 mm 410 W/m2
09:33 4.8 °C -5.3 °C 1017.6 hPa SSE 4.7 km/h 20.9 km/h 48% 0.0 mm 418 W/m2
09:38 4.8 °C -5.3 °C 1018.0 hPa NE 6.4 km/h 16.1 km/h 48% 0.0 mm 434 W/m2
09:43 5 °C -5.1 °C 1018.0 hPa NE 14.3 km/h 25.7 km/h 48% 0.0 mm 441 W/m2
09:48 5 °C -5.1 °C 1018.0 hPa NE 9.7 km/h 16.1 km/h 48% 0.0 mm 446 W/m2
09:53 5.2 °C -5.2 °C 1018.0 hPa East 13 km/h 25.7 km/h 47% 0.0 mm 455 W/m2
09:58 5.4 °C -5 °C 1018.0 hPa East 11.1 km/h 16.1 km/h 47% 0.0 mm 462 W/m2
10:03 5.4 °C -5 °C 1018.0 hPa NE 4.7 km/h 19.3 km/h 47% 0.0 mm 478 W/m2
10:08 5.5 °C -4.6 °C 1018.0 hPa ENE 7.9 km/h 24.1 km/h 48% 0.0 mm 476 W/m2
10:13 5.7 °C -4.7 °C 1018.0 hPa North 7.9 km/h 16.1 km/h 47% 0.0 mm 494 W/m2
10:18 5.7 °C -5 °C 1018.0 hPa SE 7.9 km/h 24.1 km/h 46% 0.0 mm 504 W/m2
10:23 5.8 °C -4.4 °C 1017.6 hPa East 7.9 km/h 11.3 km/h 48% 0.0 mm 513 W/m2
10:28 6 °C -4.8 °C 1017.6 hPa East 4.7 km/h 12.9 km/h 46% 0.0 mm 519 W/m2
10:33 6.1 °C -4.9 °C 1017.6 hPa East 14.3 km/h 14.5 km/h 45% 0.0 mm 526 W/m2
10:38 6.1 °C -4.9 °C 1017.6 hPa East 16.3 km/h 20.9 km/h 45% 0.0 mm 540 W/m2
10:44 6.1 °C -5.2 °C 1017.6 hPa East 17.7 km/h 22.5 km/h 44% 0.0 mm 550 W/m2
10:49 6.3 °C -5.1 °C 1017.6 hPa ENE 6.4 km/h 6.4 km/h 44% 0.0 mm 559 W/m2
10:54 6.5 °C -5.2 °C 1017.6 hPa East 4.7 km/h 24.1 km/h 43% 0.0 mm 563 W/m2
10:59 6.5 °C -5.2 °C 1017.6 hPa ESE 14.3 km/h 14.5 km/h 43% 0.0 mm 568 W/m2
11:04 6.6 °C -5.1 °C 1017.6 hPa NE 6.4 km/h 16.1 km/h 43% 0.0 mm 571 W/m2
11:09 6.8 °C -5.5 °C 1017.6 hPa ENE 9.7 km/h 19.3 km/h 41% 0.0 mm 587 W/m2
11:14 6.9 °C -5.1 °C 1017.6 hPa SE 6.4 km/h 16.1 km/h 42% 0.0 mm 591 W/m2
11:19 7.1 °C -5 °C 1017.6 hPa SE 6.4 km/h 22.5 km/h 42% 0.0 mm 592 W/m2
11:24 7.2 °C -5.5 °C 1017.6 hPa East 6.4 km/h 17.7 km/h 40% 0.0 mm 596 W/m2
11:29 7.2 °C -5.2 °C 1017.6 hPa East 6.4 km/h 20.9 km/h 41% 0.0 mm 605 W/m2
11:34 7.4 °C -5 °C 1017.6 hPa ENE 4.7 km/h 16.1 km/h 41% 0.0 mm 606 W/m2
11:39 7.3 °C -4.8 °C 1017.6 hPa East 11.1 km/h 20.9 km/h 42% 0.0 mm 606 W/m2
11:44 7.2 °C -4.9 °C 1017.6 hPa East 14.3 km/h 17.7 km/h 42% 0.0 mm 612 W/m2
11:49 7.3 °C -4.8 °C 1017.6 hPa East 7.9 km/h 16.1 km/h 42% 0.0 mm 619 W/m2
11:54 7.3 °C -4.8 °C 1017.6 hPa NNE 4.7 km/h 22.5 km/h 42% 0.0 mm 615 W/m2
11:59 7.3 °C -4.8 °C 1017.6 hPa ENE 20.9 km/h 20.9 km/h 42% 0.0 mm 617 W/m2
12:04 7.2 °C -4.6 °C 1017.6 hPa NNE 3.2 km/h 16.1 km/h 43% 0.0 mm 626 W/m2
12:09 7.5 °C -4.6 °C 1017.6 hPa NNE 9.7 km/h 12.9 km/h 42% 0.0 mm 629 W/m2
12:14 7.6 °C -4.5 °C 1017.6 hPa ESE 9.7 km/h 25.7 km/h 42% 0.0 mm 629 W/m2
12:19 7.6 °C -3.9 °C 1017.6 hPa East 14.3 km/h 14.5 km/h 44% 0.0 mm 631 W/m2
12:24 7.8 °C -4.3 °C 1017.6 hPa ENE 14.3 km/h 17.7 km/h 42% 0.0 mm 622 W/m2
12:29 7.7 °C -4.4 °C 1017.6 hPa East 14.3 km/h 14.5 km/h 42% 0.0 mm 624 W/m2
12:34 7.9 °C -4.2 °C 1017.6 hPa East 19.5 km/h 22.5 km/h 42% 0.0 mm 621 W/m2
12:39 8.1 °C -4.4 °C 1017.6 hPa East 7.9 km/h 11.3 km/h 41% 0.0 mm 626 W/m2
12:44 8.3 °C -4.5 °C 1017.6 hPa NE 14.3 km/h 22.5 km/h 40% 0.0 mm 628 W/m2
12:49 8.3 °C -4.2 °C 1017.6 hPa NE 4.7 km/h 16.1 km/h 41% 0.0 mm 624 W/m2
12:54 8.6 °C -3.9 °C 1017.6 hPa ESE 6.4 km/h 14.5 km/h 41% 0.0 mm 628 W/m2
12:59 8.7 °C -4.2 °C 1017.3 hPa SE 3.2 km/h 16.1 km/h 40% 0.0 mm 617 W/m2
13:04 8.6 °C -4.2 °C 1017.3 hPa ENE 17.7 km/h 20.9 km/h 40% 0.0 mm 619 W/m2
13:09 8.4 °C -4.4 °C 1017.3 hPa ENE 4.7 km/h 14.5 km/h 40% 0.0 mm 619 W/m2
13:14 8.4 °C -4.1 °C 1017.3 hPa SE 13 km/h 17.7 km/h 41% 0.0 mm 622 W/m2
13:19 8.8 °C -4.1 °C 1017.3 hPa ENE 14.3 km/h 17.7 km/h 40% 0.0 mm 615 W/m2
13:24 8.8 °C -3.7 °C 1017.3 hPa ESE 9.7 km/h 12.9 km/h 41% 0.0 mm 612 W/m2
13:29 8.8 °C -3.7 °C 1017.3 hPa East 16.3 km/h 16.1 km/h 41% 0.0 mm 606 W/m2
13:34 8.7 °C -4.2 °C 1017.3 hPa East 6.4 km/h 20.9 km/h 40% 0.0 mm 605 W/m2
13:39 9.1 °C -3.8 °C 1016.9 hPa ESE 3.2 km/h 8 km/h 40% 0.0 mm 601 W/m2
13:44 9.3 °C -3.6 °C 1016.9 hPa ESE 13 km/h 16.1 km/h 40% 0.0 mm 592 W/m2
13:49 9.3 °C -4 °C 1017.3 hPa East 13 km/h 17.7 km/h 39% 0.0 mm 594 W/m2
13:54 9.4 °C -3.5 °C 1016.9 hPa NNE 9.7 km/h 12.9 km/h 40% 0.0 mm 584 W/m2
13:59 9.3 °C -4 °C 1016.9 hPa North 14.3 km/h 16.1 km/h 39% 0.0 mm 573 W/m2
14:04 9.3 °C -3.3 °C 1016.9 hPa NE 3.2 km/h 8 km/h 41% 0.0 mm 573 W/m2
14:09 9.6 °C -3.7 °C 1017.3 hPa East 7.9 km/h 17.7 km/h 39% 0.0 mm 563 W/m2
14:14 9.6 °C -3.3 °C 1017.3 hPa ENE 14.3 km/h 14.5 km/h 40% 0.0 mm 557 W/m2
14:19 9.7 °C -3.3 °C 1017.3 hPa ENE 6.4 km/h 14.5 km/h 40% 0.0 mm 552 W/m2
14:25 9.8 °C -3.9 °C 1016.9 hPa NE 3.2 km/h 11.3 km/h 38% 0.0 mm 543 W/m2
14:30 9.9 °C -3.4 °C 1017.3 hPa ESE 1.4 km/h 14.5 km/h 39% 0.0 mm 536 W/m2
14:35 10.1 °C -2.9 °C 1017.3 hPa NE 6.4 km/h 11.3 km/h 40% 0.0 mm 531 W/m2
14:40 10.1 °C -3.2 °C 1016.9 hPa NE 7.9 km/h 17.7 km/h 39% 0.0 mm 526 W/m2
14:45 10.1 °C -3.2 °C 1016.9 hPa NE 11.1 km/h 12.9 km/h 39% 0.0 mm 515 W/m2
14:50 10.1 °C -3.6 °C 1016.9 hPa NE 7.9 km/h 16.1 km/h 38% 0.0 mm 508 W/m2
14:55 10.1 °C -3.2 °C 1016.9 hPa East 11.1 km/h 14.5 km/h 39% 0.0 mm 497 W/m2
15:00 10.1 °C -3.2 °C 1016.9 hPa NE 11.1 km/h 14.5 km/h 39% 0.0 mm 490 W/m2
15:05 10.2 °C -3.1 °C 1016.9 hPa ENE 3.2 km/h 14.5 km/h 39% 0.0 mm 504 W/m2
15:10 10.3 °C -3.1 °C 1016.9 hPa SE 7.9 km/h 12.9 km/h 39% 0.0 mm 510 W/m2
15:15 10.3 °C -3.4 °C 1016.9 hPa NNW 6.4 km/h 24.1 km/h 38% 0.0 mm 288 W/m2
15:21 10.3 °C -3.4 °C 1016.9 hPa East 4.7 km/h 12.9 km/h 38% 0.0 mm 397 W/m2
15:26 10.2 °C -3.1 °C 1016.9 hPa SE 4.7 km/h 24.1 km/h 39% 0.0 mm 387 W/m2
15:31 10.2 °C -3.9 °C 1016.9 hPa ENE 16.3 km/h 16.1 km/h 37% 0.0 mm 221 W/m2
15:36 10.1 °C -2.9 °C 1016.9 hPa SE 4.7 km/h 17.7 km/h 40% 0.0 mm 221 W/m2
15:41 10.1 °C -3.2 °C 1016.9 hPa ENE 3.2 km/h 16.1 km/h 39% 0.0 mm 476 W/m2
15:46 10.3 °C -2.7 °C 1016.9 hPa NE 14.3 km/h 14.5 km/h 40% 0.0 mm 309 W/m2
15:51 10.3 °C -3.8 °C 1016.9 hPa ESE 4.7 km/h 24.1 km/h 37% 0.0 mm 369 W/m2
15:56 10.2 °C -2.8 °C 1016.9 hPa East 11.1 km/h 19.3 km/h 40% 0.0 mm 381 W/m2
16:01 10.3 °C -3.1 °C 1016.9 hPa East 4.7 km/h 17.7 km/h 39% 0.0 mm 475 W/m2
16:06 10.4 °C -3.3 °C 1016.9 hPa East 3.2 km/h 9.7 km/h 38% 0.0 mm 287 W/m2
16:11 10.3 °C -3.1 °C 1016.9 hPa East 4.7 km/h 12.9 km/h 39% 0.0 mm 237 W/m2
16:16 10.3 °C -3.4 °C 1016.9 hPa NNW 9.7 km/h 14.5 km/h 38% 0.0 mm 431 W/m2
16:21 10.4 °C -3 °C 1016.9 hPa East 6.4 km/h 19.3 km/h 39% 0.0 mm 260 W/m2
16:26 10.4 °C -2.6 °C 1016.9 hPa ESE 9.7 km/h 9.7 km/h 40% 0.0 mm 232 W/m2
16:31 10.2 °C -3.5 °C 1016.9 hPa East 1.4 km/h 19.3 km/h 38% 0.0 mm 225 W/m2
16:36 10.2 °C -2.8 °C 1016.9 hPa NE 4.7 km/h 9.7 km/h 40% 0.0 mm 192 W/m2
16:41 10.1 °C -2.9 °C 1016.9 hPa ESE 1.4 km/h 11.3 km/h 40% 0.0 mm 221 W/m2
16:46 10.1 °C -2.9 °C 1016.9 hPa ENE 7.9 km/h 8 km/h 40% 0.0 mm 158 W/m2
16:51 10.1 °C -2.6 °C 1016.9 hPa East 3.2 km/h 6.4 km/h 41% 0.0 mm 165 W/m2
16:56 10.1 °C -2.6 °C 1016.9 hPa ESE 4.7 km/h 12.9 km/h 41% 0.0 mm 172 W/m2
17:02 10.1 °C -2.9 °C 1016.9 hPa NE 4.7 km/h 16.1 km/h 40% 0.0 mm 139 W/m2
17:07 9.9 °C -2.7 °C 1016.9 hPa ENE 4.7 km/h 11.3 km/h 41% 0.0 mm 128 W/m2
17:12 9.7 °C -2.9 °C 1016.9 hPa ENE 7.9 km/h 16.1 km/h 41% 0.0 mm 134 W/m2
17:17 9.7 °C -2.6 °C 1016.9 hPa SE 4.7 km/h 6.4 km/h 42% 0.0 mm 137 W/m2
17:22 9.7 °C -2.6 °C 1016.9 hPa East 3.2 km/h 11.3 km/h 42% 0.0 mm 193 W/m2
17:27 9.8 °C -2.8 °C 1016.9 hPa ESE 3.2 km/h 11.3 km/h 41% 0.0 mm 197 W/m2
17:32 9.9 °C -2.4 °C 1017.3 hPa ESE 9.7 km/h 9.7 km/h 42% 0.0 mm 137 W/m2
17:37 9.8 °C -2.8 °C 1017.3 hPa ENE 4.7 km/h 12.9 km/h 41% 0.0 mm 137 W/m2
17:42 9.8 °C -2.8 °C 1016.9 hPa ESE 1.4 km/h 8 km/h 41% 0.0 mm 137 W/m2
17:47 9.7 °C -2.9 °C 1016.9 hPa NE 7.9 km/h 12.9 km/h 41% 0.0 mm 142 W/m2
17:52 9.7 °C -2.9 °C 1017.3 hPa ESE 1.4 km/h 12.9 km/h 41% 0.0 mm 123 W/m2
17:57 9.7 °C -2.9 °C 1016.9 hPa SE 3.2 km/h 17.7 km/h 41% 0.0 mm 97 W/m2
18:02 9.6 °C -3 °C 1017.3 hPa ENE 6.4 km/h 14.5 km/h 41% 0.0 mm 81 W/m2
18:07 9.5 °C -2.8 °C 1017.3 hPa East 6.4 km/h 17.7 km/h 42% 0.0 mm 65 W/m2
18:12 9.4 °C -2.9 °C 1017.3 hPa Calm   14.5 km/h 42% 0.0 mm 47 W/m2
18:17 9.3 °C -3.3 °C 1017.3 hPa ENE 4.7 km/h 19.3 km/h 41% 0.0 mm 37 W/m2
18:22 9.2 °C -3.1 °C 1017.3 hPa NE 7.9 km/h 11.3 km/h 42% 0.0 mm 25 W/m2
18:27 9.2 °C -3.1 °C 1017.3 hPa East 3.2 km/h 17.7 km/h 42% 0.0 mm 19 W/m2
18:32 9.1 °C -3.1 °C 1017.3 hPa ESE 1.4 km/h 14.5 km/h 42% 0.0 mm 14 W/m2
18:37 9 °C -2.9 °C 1017.3 hPa ENE 6.4 km/h 9.7 km/h 43% 0.0 mm 11 W/m2
18:42 8.9 °C -3 °C 1017.3 hPa ESE 4.7 km/h 6.4 km/h 43% 0.0 mm 9 W/m2
18:47 8.9 °C -2.7 °C 1017.3 hPa Calm   4.8 km/h 44% 0.0 mm 9 W/m2
18:52 8.8 °C -3.1 °C 1017.3 hPa NE 1.4 km/h 4.8 km/h 43% 0.0 mm 7 W/m2
18:57 8.8 °C -2.8 °C 1017.6 hPa ENE 6.4 km/h 11.3 km/h 44% 0.0 mm 5 W/m2
19:02 8.7 °C -2.9 °C 1017.3 hPa ENE 1.4 km/h 8 km/h 44% 0.0 mm 5 W/m2
19:07 8.6 °C -2.7 °C 1017.6 hPa ENE 6.4 km/h 6.4 km/h 45% 0.0 mm 0 W/m2
19:12 8.5 °C -2.5 °C 1017.6 hPa ESE 9.7 km/h 12.9 km/h 46% 0.0 mm 0 W/m2
19:17 8.4 °C -2.9 °C 1017.6 hPa Calm   6.4 km/h 45% 0.0 mm 0 W/m2
19:22 8.4 °C -2.6 °C 1017.6 hPa East 4.7 km/h 11.3 km/h 46% 0.0 mm 0 W/m2
19:27 8.3 °C -2.6 °C 1017.6 hPa East 7.9 km/h 17.7 km/h 46% 0.0 mm 0 W/m2
19:32 8.3 °C -2.6 °C 1018.0 hPa East 3.2 km/h 12.9 km/h 46% 0.0 mm 0 W/m2
19:37 8.3 °C -2.6 °C 1018.0 hPa NE 1.4 km/h 17.7 km/h 46% 0.0 mm 0 W/m2
19:42 8.3 °C -2.4 °C 1018.0 hPa ESE 4.7 km/h 11.3 km/h 47% 0.0 mm 0 W/m2
19:47 8.2 °C -2.4 °C 1018.0 hPa ENE 3.2 km/h 6.4 km/h 47% 0.0 mm 0 W/m2
19:52 8.1 °C -2.3 °C 1018.0 hPa SE 4.7 km/h 4.8 km/h 48% 0.0 mm 0 W/m2
19:57 8.1 °C -2.3 °C 1018.0 hPa East 4.7 km/h 6.4 km/h 48% 0.0 mm 0 W/m2
20:02 8.1 °C -2.3 °C 1018.0 hPa ESE 3.2 km/h 4.8 km/h 48% 0.0 mm 0 W/m2
20:07 7.9 °C -2.4 °C 1018.0 hPa ESE 4.7 km/h 6.4 km/h 48% 0.0 mm 0 W/m2
20:12 7.9 °C -2.2 °C 1018.0 hPa ENE 1.4 km/h 4.8 km/h 49% 0.0 mm 0 W/m2
20:17 7.8 °C -2.3 °C 1018.0 hPa East 3.2 km/h 4.8 km/h 49% 0.0 mm 0 W/m2
20:22 7.8 °C -2.3 °C 1018.0 hPa East 1.4 km/h 6.4 km/h 49% 0.0 mm 0 W/m2
20:27 7.7 °C -2.3 °C 1018.0 hPa East 1.4 km/h 4.8 km/h 49% 0.0 mm 0 W/m2
20:32 7.7 °C -2.1 °C 1018.0 hPa ENE 4.7 km/h 4.8 km/h 50% 0.0 mm 0 W/m2
20:37 7.6 °C -2.2 °C 1018.0 hPa ESE 4.7 km/h 6.4 km/h 50% 0.0 mm 0 W/m2
20:42 7.6 °C -1.9 °C 1018.0 hPa East 3.2 km/h 6.4 km/h 51% 0.0 mm 0 W/m2
20:47 7.6 °C -2.2 °C 1018.0 hPa ESE 4.7 km/h 9.7 km/h 50% 0.0 mm 0 W/m2
20:52 7.7 °C -2.1 °C 1018.0 hPa ESE 9.7 km/h 12.9 km/h 50% 0.0 mm 0 W/m2
20:57 7.7 °C -2.1 °C 1018.0 hPa SE 3.2 km/h 9.7 km/h 50% 0.0 mm 0 W/m2
21:02 7.6 °C -1.9 °C 1018.0 hPa ESE 9.7 km/h 9.7 km/h 51% 0.0 mm 0 W/m2
21:07 7.6 °C -1.9 °C 1018.0 hPa East 3.2 km/h 11.3 km/h 51% 0.0 mm 0 W/m2
21:12 7.6 °C -1.9 °C 1018.0 hPa East 4.7 km/h 8 km/h 51% 0.0 mm 0 W/m2
21:17 7.6 °C -1.9 °C 1018.0 hPa East 3.2 km/h 8 km/h 51% 0.0 mm 0 W/m2
21:22 7.6 °C -1.9 °C 1018.0 hPa NE 3.2 km/h 4.8 km/h 51% 0.0 mm 0 W/m2
21:27 7.5 °C -2 °C 1018.0 hPa ESE 4.7 km/h 6.4 km/h 51% 0.0 mm 0 W/m2
21:32 7.5 °C -2 °C 1017.6 hPa ESE 6.4 km/h 6.4 km/h 51% 0.0 mm 0 W/m2
21:37 7.4 °C -2.1 °C 1017.6 hPa Calm   6.4 km/h 51% 0.0 mm 0 W/m2
21:42 7.4 °C -1.8 °C 1017.6 hPa Calm   1.6 km/h 52% 0.0 mm 0 W/m2
21:47 7.3 °C -1.7 °C 1017.6 hPa Calm     53% 0.0 mm 0 W/m2
21:52 7.2 °C -1.7 °C 1017.6 hPa ENE 1.4 km/h 1.6 km/h 53% 0.0 mm 0 W/m2
21:57 7 °C -1.9 °C 1017.6 hPa Calm   1.6 km/h 53% 0.0 mm 0 W/m2
22:02 6.8 °C -2.1 °C 1017.6 hPa WNW 1.4 km/h 1.6 km/h 53% 0.0 mm 0 W/m2
22:07 6.8 °C -1.9 °C 1017.6 hPa Calm   1.6 km/h 54% 0.0 mm 0 W/m2
22:12 6.7 °C -2 °C 1017.6 hPa Calm   1.6 km/h 54% 0.0 mm 0 W/m2
22:17 6.7 °C -2 °C 1017.6 hPa NNW 1.4 km/h 3.2 km/h 54% 0.0 mm 0 W/m2
22:22 6.6 °C -1.8 °C 1017.3 hPa Calm   3.2 km/h 55% 0.0 mm 0 W/m2
22:27 6.4 °C -1.7 °C 1017.3 hPa NNW 1.4 km/h 1.6 km/h 56% 0.0 mm 0 W/m2
22:32 6.2 °C -1.7 °C 1017.3 hPa Calm     57% 0.0 mm 0 W/m2
22:37 6.1 °C -1.8 °C 1017.3 hPa Calm   1.6 km/h 57% 0.0 mm 0 W/m2
22:42 6.1 °C -1.8 °C 1017.3 hPa Calm   1.6 km/h 57% 0.0 mm 0 W/m2
22:47 5.9 °C -1.7 °C 1017.3 hPa Calm   1.6 km/h 58% 0.0 mm 0 W/m2
22:52 5.8 °C -1.4 °C 1016.9 hPa Calm     60% 0.0 mm 0 W/m2
22:57 5.7 °C -1.7 °C 1016.9 hPa Calm   1.6 km/h 59% 0.0 mm 0 W/m2
23:02 5.5 °C -1.7 °C 1016.9 hPa North 1.4 km/h 3.2 km/h 60% 0.0 mm 0 W/m2
23:07 5.3 °C -1.6 °C 1016.9 hPa WNW 1.4 km/h 4.8 km/h 61% 0.0 mm 0 W/m2
23:12 5.1 °C -1.8 °C 1016.9 hPa Calm   1.6 km/h 61% 0.0 mm 0 W/m2
23:17 4.9 °C -1.6 °C 1016.9 hPa Calm   1.6 km/h 63% 0.0 mm 0 W/m2
23:23 4.7 °C -1.7 °C 1016.9 hPa Calm   1.6 km/h 63% 0.0 mm 0 W/m2
23:28 4.6 °C -1.8 °C 1016.9 hPa WNW 1.4 km/h 3.2 km/h 63% 0.0 mm 0 W/m2
23:33 4.4 °C -1.8 °C 1016.9 hPa WNW 1.4 km/h 1.6 km/h 64% 0.0 mm 0 W/m2
23:38 4.4 °C -1.6 °C 1016.9 hPa Calm   3.2 km/h 65% 0.0 mm 0 W/m2
23:43 4.3 °C -1.7 °C 1016.9 hPa Calm     65% 0.0 mm 0 W/m2
23:48 4.2 °C -1.6 °C 1016.9 hPa Calm   3.2 km/h 66% 0.0 mm 0 W/m2
23:53 4.1 °C -1.7 °C 1016.9 hPa Calm     66% 0.0 mm 0 W/m2
23:58 3.9 °C -1.7 °C 1016.9 hPa Calm     67% 0.0 mm 0 W/m2
Juneau County Weather
Compliments of Weather Underground - 4 mb